Year,Month,Day,Hour,Minute,Value (Times are PST for temperature in C)
2005,09,25,00,00,9.00
2005,09,25,00,01,9.00
2005,09,25,00,02,9.00
2005,09,25,00,03,8.90
2005,09,25,00,04,8.90
2005,09,25,00,05,8.90
2005,09,25,00,06,8.90
2005,09,25,00,07,8.90
2005,09,25,00,08,8.80
2005,09,25,00,09,8.80
2005,09,25,00,10,8.90
2005,09,25,00,11,8.90
2005,09,25,00,12,8.90
2005,09,25,00,13,9.00
2005,09,25,00,14,8.90
2005,09,25,00,15,9.00
2005,09,25,00,16,9.00
2005,09,25,00,17,9.00
2005,09,25,00,18,9.00
2005,09,25,00,19,9.00
2005,09,25,00,20,9.10
2005,09,25,00,21,9.20
2005,09,25,00,22,9.30
2005,09,25,00,23,9.40
2005,09,25,00,24,9.50
2005,09,25,00,25,9.60
2005,09,25,00,26,9.70
2005,09,25,00,27,9.70
2005,09,25,00,28,9.70
2005,09,25,00,29,9.70
2005,09,25,00,30,9.70
2005,09,25,00,31,9.70
2005,09,25,00,32,9.70
2005,09,25,00,33,9.70
2005,09,25,00,34,9.70
2005,09,25,00,35,9.70
2005,09,25,00,36,9.70
2005,09,25,00,37,9.70
2005,09,25,00,38,9.70
2005,09,25,00,39,9.70
2005,09,25,00,40,9.70
2005,09,25,00,41,9.70
2005,09,25,00,42,9.70
2005,09,25,00,43,9.70
2005,09,25,00,44,9.70
2005,09,25,00,45,9.70
2005,09,25,00,46,9.70
2005,09,25,00,47,9.70
2005,09,25,00,48,9.70
2005,09,25,00,49,9.70
2005,09,25,00,50,9.60
2005,09,25,00,51,9.60
2005,09,25,00,52,9.60
2005,09,25,00,53,9.50
2005,09,25,00,54,9.50
2005,09,25,00,55,9.50
2005,09,25,00,56,9.50
2005,09,25,00,57,9.50
2005,09,25,00,58,9.40
2005,09,25,00,59,9.40
2005,09,25,01,00,9.40
2005,09,25,01,01,9.40
2005,09,25,01,02,9.40
2005,09,25,01,03,9.40
2005,09,25,01,04,9.30
2005,09,25,01,05,9.30
2005,09,25,01,06,9.30
2005,09,25,01,07,9.30
2005,09,25,01,08,9.20
2005,09,25,01,09,9.20
2005,09,25,01,10,9.20
2005,09,25,01,11,9.20
2005,09,25,01,12,9.20
2005,09,25,01,13,9.20
2005,09,25,01,14,9.20
2005,09,25,01,15,9.20
2005,09,25,01,16,9.10
2005,09,25,01,17,9.00
2005,09,25,01,18,9.00
2005,09,25,01,19,9.00
2005,09,25,01,20,8.90
2005,09,25,01,21,8.90
2005,09,25,01,22,8.90
2005,09,25,01,23,8.90
2005,09,25,01,24,8.90
2005,09,25,01,25,8.80
2005,09,25,01,26,8.80
2005,09,25,01,27,8.80
2005,09,25,01,28,8.70
2005,09,25,01,29,8.70
2005,09,25,01,30,8.70
2005,09,25,01,31,8.70
2005,09,25,01,32,8.70
2005,09,25,01,33,8.70
2005,09,25,01,34,8.70
2005,09,25,01,35,8.70
2005,09,25,01,36,8.70
2005,09,25,01,37,8.70
2005,09,25,01,38,8.70
2005,09,25,01,39,8.70
2005,09,25,01,40,8.70
2005,09,25,01,41,8.70
2005,09,25,01,42,8.70
2005,09,25,01,43,8.70
2005,09,25,01,44,8.70
2005,09,25,01,45,8.70
2005,09,25,01,46,8.70
2005,09,25,01,47,8.60
2005,09,25,01,48,8.60
2005,09,25,01,49,8.60
2005,09,25,01,50,8.60
2005,09,25,01,51,8.50
2005,09,25,01,52,8.50
2005,09,25,01,53,8.50
2005,09,25,01,54,8.50
2005,09,25,01,55,8.50
2005,09,25,01,56,8.50
2005,09,25,01,57,8.40
2005,09,25,01,58,8.40
2005,09,25,01,59,8.40
2005,09,25,02,00,8.40
2005,09,25,02,01,8.40
2005,09,25,02,02,8.40
2005,09,25,02,03,8.40
2005,09,25,02,04,8.30
2005,09,25,02,05,8.30
2005,09,25,02,06,8.30
2005,09,25,02,07,8.20
2005,09,25,02,08,8.20
2005,09,25,02,09,8.20
2005,09,25,02,10,8.20
2005,09,25,02,11,8.20
2005,09,25,02,12,8.20
2005,09,25,02,13,8.20
2005,09,25,02,14,8.20
2005,09,25,02,15,8.10
2005,09,25,02,16,8.10
2005,09,25,02,17,8.00
2005,09,25,02,18,8.00
2005,09,25,02,19,8.00
2005,09,25,02,20,7.90
2005,09,25,02,21,7.90
2005,09,25,02,22,7.80
2005,09,25,02,23,7.80
2005,09,25,02,24,7.80
2005,09,25,02,25,7.80
2005,09,25,02,26,7.80
2005,09,25,02,27,7.80
2005,09,25,02,28,7.80
2005,09,25,02,29,7.80
2005,09,25,02,30,7.80
2005,09,25,02,31,7.80
2005,09,25,02,32,7.80
2005,09,25,02,33,7.80
2005,09,25,02,34,7.80
2005,09,25,02,35,7.80
2005,09,25,02,36,7.80
2005,09,25,02,37,7.80
2005,09,25,02,38,7.70
2005,09,25,02,39,7.70
2005,09,25,02,40,7.80
2005,09,25,02,41,7.80
2005,09,25,02,42,7.80
2005,09,25,02,43,7.80
2005,09,25,02,44,7.80
2005,09,25,02,45,7.80
2005,09,25,02,46,7.80
2005,09,25,02,47,7.80
2005,09,25,02,48,7.80
2005,09,25,02,49,7.80
2005,09,25,02,50,7.80
2005,09,25,02,51,7.80
2005,09,25,02,52,7.80
2005,09,25,02,53,7.80
2005,09,25,02,54,7.80
2005,09,25,02,55,7.80
2005,09,25,02,56,7.80
2005,09,25,02,57,7.70
2005,09,25,02,58,7.70
2005,09,25,02,59,7.70
2005,09,25,03,00,7.70
2005,09,25,03,01,7.70
2005,09,25,03,02,7.70
2005,09,25,03,03,7.60
2005,09,25,03,04,7.60
2005,09,25,03,05,7.70
2005,09,25,03,06,7.70
2005,09,25,03,07,7.70
2005,09,25,03,08,7.70
2005,09,25,03,09,7.70
2005,09,25,03,10,7.70
2005,09,25,03,11,7.70
2005,09,25,03,12,7.70
2005,09,25,03,13,7.70
2005,09,25,03,14,7.70
2005,09,25,03,15,7.70
2005,09,25,03,16,7.70
2005,09,25,03,17,7.70
2005,09,25,03,18,7.70
2005,09,25,03,19,7.70
2005,09,25,03,20,7.70
2005,09,25,03,21,7.70
2005,09,25,03,22,7.70
2005,09,25,03,23,7.60
2005,09,25,03,24,7.60
2005,09,25,03,25,7.60
2005,09,25,03,26,7.60
2005,09,25,03,27,7.60
2005,09,25,03,28,7.60
2005,09,25,03,29,7.60
2005,09,25,03,30,7.60
2005,09,25,03,31,7.60
2005,09,25,03,32,7.60
2005,09,25,03,33,7.60
2005,09,25,03,34,7.60
2005,09,25,03,35,7.60
2005,09,25,03,36,7.60
2005,09,25,03,37,7.60
2005,09,25,03,38,7.60
2005,09,25,03,39,7.60
2005,09,25,03,40,7.60
2005,09,25,03,41,7.60
2005,09,25,03,42,7.60
2005,09,25,03,43,7.60
2005,09,25,03,44,7.60
2005,09,25,03,45,7.60
2005,09,25,03,46,7.60
2005,09,25,03,47,7.60
2005,09,25,03,48,7.60
2005,09,25,03,49,7.60
2005,09,25,03,50,7.70
2005,09,25,03,51,7.70
2005,09,25,03,52,7.70
2005,09,25,03,53,7.70
2005,09,25,03,54,7.70
2005,09,25,03,55,7.70
2005,09,25,03,56,7.60
2005,09,25,03,57,7.60
2005,09,25,03,58,7.50
2005,09,25,03,59,7.50
2005,09,25,04,00,7.50
2005,09,25,04,01,7.50
2005,09,25,04,02,7.50
2005,09,25,04,03,7.50
2005,09,25,04,04,7.50
2005,09,25,04,05,7.50
2005,09,25,04,06,7.50
2005,09,25,04,07,7.50
2005,09,25,04,08,7.50
2005,09,25,04,09,7.40
2005,09,25,04,10,7.40
2005,09,25,04,11,7.30
2005,09,25,04,12,7.30
2005,09,25,04,13,7.30
2005,09,25,04,14,7.30
2005,09,25,04,15,7.30
2005,09,25,04,16,7.30
2005,09,25,04,17,7.30
2005,09,25,04,18,7.20
2005,09,25,04,19,7.20
2005,09,25,04,20,7.20
2005,09,25,04,21,7.20
2005,09,25,04,22,7.20
2005,09,25,04,23,7.20
2005,09,25,04,24,7.10
2005,09,25,04,25,7.10
2005,09,25,04,26,7.10
2005,09,25,04,27,7.10
2005,09,25,04,28,7.10
2005,09,25,04,29,7.10
2005,09,25,04,30,7.10
2005,09,25,04,31,7.10
2005,09,25,04,32,7.10
2005,09,25,04,33,7.10
2005,09,25,04,34,7.10
2005,09,25,04,35,7.10
2005,09,25,04,36,7.10
2005,09,25,04,37,7.10
2005,09,25,04,38,7.10
2005,09,25,04,39,7.00
2005,09,25,04,40,7.00
2005,09,25,04,41,7.00
2005,09,25,04,42,7.10
2005,09,25,04,43,7.10
2005,09,25,04,44,7.10
2005,09,25,04,45,7.10
2005,09,25,04,46,7.10
2005,09,25,04,47,7.10
2005,09,25,04,48,7.10
2005,09,25,04,49,7.10
2005,09,25,04,50,7.10
2005,09,25,04,51,7.10
2005,09,25,04,52,7.10
2005,09,25,04,53,7.20
2005,09,25,04,54,7.20
2005,09,25,04,55,7.20
2005,09,25,04,56,7.10
2005,09,25,04,57,7.10
2005,09,25,04,58,7.00
2005,09,25,04,59,7.00
2005,09,25,05,00,7.00
2005,09,25,05,01,7.00
2005,09,25,05,02,6.90
2005,09,25,05,03,6.90
2005,09,25,05,04,6.90
2005,09,25,05,05,6.80
2005,09,25,05,06,6.80
2005,09,25,05,07,6.80
2005,09,25,05,08,6.80
2005,09,25,05,09,6.80
2005,09,25,05,10,6.70
2005,09,25,05,11,6.70
2005,09,25,05,12,6.70
2005,09,25,05,13,6.70
2005,09,25,05,14,6.70
2005,09,25,05,15,6.70
2005,09,25,05,16,6.70
2005,09,25,05,17,6.60
2005,09,25,05,18,6.70
2005,09,25,05,19,6.70
2005,09,25,05,20,6.70
2005,09,25,05,21,6.70
2005,09,25,05,22,6.60
2005,09,25,05,23,6.60
2005,09,25,05,24,6.60
2005,09,25,05,25,6.60
2005,09,25,05,26,6.60
2005,09,25,05,27,6.60
2005,09,25,05,28,6.60
2005,09,25,05,29,6.60
2005,09,25,05,30,6.60
2005,09,25,05,31,6.60
2005,09,25,05,32,6.60
2005,09,25,05,33,6.60
2005,09,25,05,34,6.60
2005,09,25,05,35,6.60
2005,09,25,05,36,6.60
2005,09,25,05,37,6.60
2005,09,25,05,38,6.60
2005,09,25,05,39,6.60
2005,09,25,05,40,6.60
2005,09,25,05,41,6.60
2005,09,25,05,42,6.60
2005,09,25,05,43,6.60
2005,09,25,05,44,6.60
2005,09,25,05,45,6.60
2005,09,25,05,46,6.60
2005,09,25,05,47,6.60
2005,09,25,05,48,6.60
2005,09,25,05,49,6.60
2005,09,25,05,50,6.60
2005,09,25,05,51,6.60
2005,09,25,05,52,6.60
2005,09,25,05,53,6.60
2005,09,25,05,54,6.60
2005,09,25,05,55,6.60
2005,09,25,05,56,6.60
2005,09,25,05,57,6.60
2005,09,25,05,58,6.60
2005,09,25,05,59,6.60
2005,09,25,06,00,6.60
2005,09,25,06,01,6.60
2005,09,25,06,02,6.60
2005,09,25,06,03,6.60
2005,09,25,06,04,6.60
2005,09,25,06,05,6.60
2005,09,25,06,06,6.60
2005,09,25,06,07,6.60
2005,09,25,06,08,6.60
2005,09,25,06,09,6.60
2005,09,25,06,10,6.60
2005,09,25,06,11,6.60
2005,09,25,06,12,6.60
2005,09,25,06,13,6.60
2005,09,25,06,14,6.60
2005,09,25,06,15,6.60
2005,09,25,06,16,6.60
2005,09,25,06,17,6.60
2005,09,25,06,18,6.60
2005,09,25,06,19,6.60
2005,09,25,06,20,6.60
2005,09,25,06,21,6.60
2005,09,25,06,22,6.60
2005,09,25,06,23,6.60
2005,09,25,06,24,6.60
2005,09,25,06,25,6.60
2005,09,25,06,26,6.60
2005,09,25,06,27,6.60
2005,09,25,06,28,6.60
2005,09,25,06,29,6.60
2005,09,25,06,30,6.60
2005,09,25,06,31,6.60
2005,09,25,06,32,6.60
2005,09,25,06,33,6.60
2005,09,25,06,34,6.60
2005,09,25,06,35,6.60
2005,09,25,06,36,6.60
2005,09,25,06,37,6.60
2005,09,25,06,38,6.60
2005,09,25,06,39,6.50
2005,09,25,06,40,6.40
2005,09,25,06,41,6.40
2005,09,25,06,42,6.40
2005,09,25,06,43,6.40
2005,09,25,06,44,6.40
2005,09,25,06,45,6.40
2005,09,25,06,46,6.40
2005,09,25,06,47,6.40
2005,09,25,06,48,6.40
2005,09,25,06,49,6.40
2005,09,25,06,50,6.40
2005,09,25,06,51,6.40
2005,09,25,06,52,6.40
2005,09,25,06,53,6.40
2005,09,25,06,54,6.40
2005,09,25,06,55,6.40
2005,09,25,06,56,6.40
2005,09,25,06,57,6.40
2005,09,25,06,58,6.40
2005,09,25,06,59,6.40
2005,09,25,07,00,6.50
2005,09,25,07,01,6.60
2005,09,25,07,02,6.60
2005,09,25,07,03,6.60
2005,09,25,07,04,6.60
2005,09,25,07,05,6.60
2005,09,25,07,06,6.60
2005,09,25,07,07,6.60
2005,09,25,07,08,6.60
2005,09,25,07,09,6.50
2005,09,25,07,10,6.40
2005,09,25,07,11,6.40
2005,09,25,07,12,6.40
2005,09,25,07,13,6.40
2005,09,25,07,14,6.30
2005,09,25,07,15,6.30
2005,09,25,07,16,6.30
2005,09,25,07,17,6.30
2005,09,25,07,18,6.30
2005,09,25,07,19,6.20
2005,09,25,07,20,6.20
2005,09,25,07,21,6.20
2005,09,25,07,22,6.20
2005,09,25,07,23,6.20
2005,09,25,07,24,6.20
2005,09,25,07,25,6.20
2005,09,25,07,26,6.20
2005,09,25,07,27,6.20
2005,09,25,07,28,6.20
2005,09,25,07,29,6.20
2005,09,25,07,30,6.20
2005,09,25,07,31,6.20
2005,09,25,07,32,6.20
2005,09,25,07,33,6.20
2005,09,25,07,34,6.20
2005,09,25,07,35,6.20
2005,09,25,07,36,6.30
2005,09,25,07,37,6.30
2005,09,25,07,38,6.30
2005,09,25,07,39,6.30
2005,09,25,07,40,6.30
2005,09,25,07,41,6.40
2005,09,25,07,42,6.40
2005,09,25,07,43,6.40
2005,09,25,07,44,6.40
2005,09,25,07,45,6.50
2005,09,25,07,46,6.60
2005,09,25,07,47,6.60
2005,09,25,07,48,6.80
2005,09,25,07,49,6.80
2005,09,25,07,50,7.00
2005,09,25,07,51,7.00
2005,09,25,07,52,7.20
2005,09,25,07,53,7.30
2005,09,25,07,54,7.40
2005,09,25,07,55,7.40
2005,09,25,07,56,7.40
2005,09,25,07,57,7.40
2005,09,25,07,58,7.50
2005,09,25,07,59,7.60
2005,09,25,08,00,7.60
2005,09,25,08,01,7.60
2005,09,25,08,02,7.70
2005,09,25,08,03,7.70
2005,09,25,08,04,7.70
2005,09,25,08,05,7.70
2005,09,25,08,06,7.80
2005,09,25,08,07,7.80
2005,09,25,08,08,7.80
2005,09,25,08,09,7.80
2005,09,25,08,10,8.00
2005,09,25,08,11,8.00
2005,09,25,08,12,8.10
2005,09,25,08,13,8.40
2005,09,25,08,14,8.70
2005,09,25,08,15,8.80
2005,09,25,08,16,9.10
2005,09,25,08,17,9.30
2005,09,25,08,18,9.50
2005,09,25,08,19,9.70
2005,09,25,08,20,9.80
2005,09,25,08,21,10.00
2005,09,25,08,22,10.10
2005,09,25,08,23,10.20
2005,09,25,08,24,10.20
2005,09,25,08,25,10.30
2005,09,25,08,26,10.40
2005,09,25,08,27,10.60
2005,09,25,08,28,10.60
2005,09,25,08,29,10.60
2005,09,25,08,30,10.70
2005,09,25,08,31,10.80
2005,09,25,08,32,10.80
2005,09,25,08,33,10.90
2005,09,25,08,34,10.90
2005,09,25,08,35,10.90
2005,09,25,08,36,10.90
2005,09,25,08,37,10.90
2005,09,25,08,38,11.00
2005,09,25,08,39,11.10
2005,09,25,08,40,11.10
2005,09,25,08,41,11.10
2005,09,25,08,42,11.10
2005,09,25,08,43,11.10
2005,09,25,08,44,11.10
2005,09,25,08,45,11.10
2005,09,25,08,46,11.20
2005,09,25,08,47,11.20
2005,09,25,08,48,11.20
2005,09,25,08,49,11.20
2005,09,25,08,50,11.20
2005,09,25,08,51,11.30
2005,09,25,08,52,11.20
2005,09,25,08,53,11.30
2005,09,25,08,54,11.30
2005,09,25,08,55,11.30
2005,09,25,08,56,11.30
2005,09,25,08,57,11.30
2005,09,25,08,58,11.30
2005,09,25,08,59,11.40
2005,09,25,09,00,11.40
2005,09,25,09,01,11.40
2005,09,25,09,02,11.40
2005,09,25,09,03,11.40
2005,09,25,09,04,11.40
2005,09,25,09,05,11.40
2005,09,25,09,06,11.40
2005,09,25,09,07,11.40
2005,09,25,09,08,11.40
2005,09,25,09,09,11.40
2005,09,25,09,10,11.40
2005,09,25,09,11,11.40
2005,09,25,09,12,11.30
2005,09,25,09,13,11.30
2005,09,25,09,14,11.30
2005,09,25,09,15,11.40
2005,09,25,09,16,11.40
2005,09,25,09,17,11.40
2005,09,25,09,18,11.40
2005,09,25,09,19,11.50
2005,09,25,09,20,11.60
2005,09,25,09,21,11.60
2005,09,25,09,22,11.60
2005,09,25,09,23,11.60
2005,09,25,09,24,11.60
2005,09,25,09,25,11.60
2005,09,25,09,26,11.60
2005,09,25,09,27,11.70
2005,09,25,09,28,11.80
2005,09,25,09,29,11.90
2005,09,25,09,30,11.90
2005,09,25,09,31,11.90
2005,09,25,09,32,12.00
2005,09,25,09,33,12.10
2005,09,25,09,34,12.10
2005,09,25,09,35,12.10
2005,09,25,09,36,12.10
2005,09,25,09,37,12.10
2005,09,25,09,38,12.10
2005,09,25,09,39,12.20
2005,09,25,09,40,12.30
2005,09,25,09,41,12.30
2005,09,25,09,42,12.30
2005,09,25,09,43,12.30
2005,09,25,09,44,12.30
2005,09,25,09,45,12.30
2005,09,25,09,46,12.30
2005,09,25,09,47,12.30
2005,09,25,09,48,12.30
2005,09,25,09,49,12.30
2005,09,25,09,50,12.20
2005,09,25,09,51,12.10
2005,09,25,09,52,12.10
2005,09,25,09,53,12.10
2005,09,25,09,54,12.10
2005,09,25,09,55,12.20
2005,09,25,09,56,12.20
2005,09,25,09,57,12.30
2005,09,25,09,58,12.30
2005,09,25,09,59,12.40
2005,09,25,10,00,12.50
2005,09,25,10,01,12.60
2005,09,25,10,02,12.60
2005,09,25,10,03,12.60
2005,09,25,10,04,12.80
2005,09,25,10,05,12.80
2005,09,25,10,06,12.80
2005,09,25,10,07,12.80
2005,09,25,10,08,12.80
2005,09,25,10,09,12.80
2005,09,25,10,10,12.80
2005,09,25,10,11,12.90
2005,09,25,10,12,12.90
2005,09,25,10,13,12.80
2005,09,25,10,14,12.80
2005,09,25,10,15,12.80
2005,09,25,10,16,12.80
2005,09,25,10,17,12.80
2005,09,25,10,18,12.80
2005,09,25,10,19,12.90
2005,09,25,10,20,13.00
2005,09,25,10,21,13.00
2005,09,25,10,22,13.00
2005,09,25,10,23,13.00
2005,09,25,10,24,12.90
2005,09,25,10,25,12.90
2005,09,25,10,26,12.90
2005,09,25,10,27,12.80
2005,09,25,10,28,12.80
2005,09,25,10,29,12.80
2005,09,25,10,30,12.70
2005,09,25,10,31,12.70
2005,09,25,10,32,12.60
2005,09,25,10,33,12.60
2005,09,25,10,34,12.60
2005,09,25,10,35,12.60
2005,09,25,10,36,12.60
2005,09,25,10,37,12.60
2005,09,25,10,38,12.70
2005,09,25,10,39,12.70
2005,09,25,10,40,12.70
2005,09,25,10,41,12.70
2005,09,25,10,42,12.70
2005,09,25,10,43,12.70
2005,09,25,10,44,12.80
2005,09,25,10,45,12.80
2005,09,25,10,46,12.80
2005,09,25,10,47,12.90
2005,09,25,10,48,12.90
2005,09,25,10,49,13.00
2005,09,25,10,50,13.10
2005,09,25,10,51,13.10
2005,09,25,10,52,13.20
2005,09,25,10,53,13.30
2005,09,25,10,54,13.30
2005,09,25,10,55,13.30
2005,09,25,10,56,13.30
2005,09,25,10,57,13.30
2005,09,25,10,58,13.30
2005,09,25,10,59,13.40
2005,09,25,11,00,13.50
2005,09,25,11,01,13.50
2005,09,25,11,02,13.50
2005,09,25,11,03,13.50
2005,09,25,11,04,13.50
2005,09,25,11,05,13.50
2005,09,25,11,06,13.60
2005,09,25,11,07,13.60
2005,09,25,11,08,13.60
2005,09,25,11,09,13.60
2005,09,25,11,10,13.70
2005,09,25,11,11,13.70
2005,09,25,11,12,13.80
2005,09,25,11,13,13.80
2005,09,25,11,14,13.90
2005,09,25,11,15,14.00
2005,09,25,11,16,14.10
2005,09,25,11,17,14.10
2005,09,25,11,18,14.20
2005,09,25,11,19,14.10
2005,09,25,11,20,14.10
2005,09,25,11,21,14.10
2005,09,25,11,22,14.10
2005,09,25,11,23,14.10
2005,09,25,11,24,14.10
2005,09,25,11,25,14.10
2005,09,25,11,26,14.10
2005,09,25,11,27,14.10
2005,09,25,11,28,14.20
2005,09,25,11,29,14.20
2005,09,25,11,30,14.20
2005,09,25,11,31,14.20
2005,09,25,11,32,14.30
2005,09,25,11,33,14.30
2005,09,25,11,34,14.40
2005,09,25,11,35,14.40
2005,09,25,11,36,14.30
2005,09,25,11,37,14.40
2005,09,25,11,38,14.40
2005,09,25,11,39,14.40
2005,09,25,11,40,14.50
2005,09,25,11,41,14.60
2005,09,25,11,42,14.60
2005,09,25,11,43,14.60
2005,09,25,11,44,14.60
2005,09,25,11,45,14.60
2005,09,25,11,46,14.60
2005,09,25,11,47,14.60
2005,09,25,11,48,14.60
2005,09,25,11,49,14.60
2005,09,25,11,50,14.60
2005,09,25,11,51,14.60
2005,09,25,11,52,14.70
2005,09,25,11,53,14.80
2005,09,25,11,54,14.80
2005,09,25,11,55,14.80
2005,09,25,11,56,14.80
2005,09,25,11,57,14.80
2005,09,25,11,58,14.80
2005,09,25,11,59,14.80
2005,09,25,12,00,14.80
2005,09,25,12,01,14.80
2005,09,25,12,02,14.80
2005,09,25,12,03,14.80
2005,09,25,12,04,14.80
2005,09,25,12,05,14.80
2005,09,25,12,06,14.80
2005,09,25,12,07,14.80
2005,09,25,12,08,14.80
2005,09,25,12,09,14.90
2005,09,25,12,10,14.90
2005,09,25,12,11,14.90
2005,09,25,12,12,15.00
2005,09,25,12,13,15.00
2005,09,25,12,14,15.00
2005,09,25,12,15,15.10
2005,09,25,12,16,15.10
2005,09,25,12,17,15.10
2005,09,25,12,18,15.20
2005,09,25,12,19,15.20
2005,09,25,12,20,15.20
2005,09,25,12,21,15.10
2005,09,25,12,22,15.20
2005,09,25,12,23,15.20
2005,09,25,12,24,15.20
2005,09,25,12,25,15.20
2005,09,25,12,26,15.20
2005,09,25,12,27,15.30
2005,09,25,12,28,15.40
2005,09,25,12,29,15.50
2005,09,25,12,30,15.50
2005,09,25,12,31,15.40
2005,09,25,12,32,15.40
2005,09,25,12,33,15.30
2005,09,25,12,34,15.40
2005,09,25,12,35,15.40
2005,09,25,12,36,15.50
2005,09,25,12,37,15.50
2005,09,25,12,38,15.50
2005,09,25,12,39,15.50
2005,09,25,12,40,15.50
2005,09,25,12,41,15.40
2005,09,25,12,42,15.50
2005,09,25,12,43,15.50
2005,09,25,12,44,15.50
2005,09,25,12,45,15.50
2005,09,25,12,46,15.60
2005,09,25,12,47,15.70
2005,09,25,12,48,15.70
2005,09,25,12,49,15.70
2005,09,25,12,50,15.70
2005,09,25,12,51,15.60
2005,09,25,12,52,15.50
2005,09,25,12,53,15.60
2005,09,25,12,54,15.50
2005,09,25,12,55,15.50
2005,09,25,12,56,15.40
2005,09,25,12,57,15.40
2005,09,25,12,58,15.50
2005,09,25,12,59,15.50
2005,09,25,13,00,15.50
2005,09,25,13,01,15.50
2005,09,25,13,02,15.60
2005,09,25,13,03,15.60
2005,09,25,13,04,15.60
2005,09,25,13,05,15.60
2005,09,25,13,06,15.70
2005,09,25,13,07,15.80
2005,09,25,13,08,15.80
2005,09,25,13,09,15.90
2005,09,25,13,10,15.90
2005,09,25,13,11,16.00
2005,09,25,13,12,16.10
2005,09,25,13,13,16.10
2005,09,25,13,14,16.20
2005,09,25,13,15,16.20
2005,09,25,13,16,16.20
2005,09,25,13,17,16.10
2005,09,25,13,18,16.10
2005,09,25,13,19,16.10
2005,09,25,13,20,16.10
2005,09,25,13,21,16.10
2005,09,25,13,22,16.20
2005,09,25,13,23,16.10
2005,09,25,13,24,16.00
2005,09,25,13,25,15.90
2005,09,25,13,26,15.90
2005,09,25,13,27,15.90
2005,09,25,13,28,16.00
2005,09,25,13,29,16.10
2005,09,25,13,30,16.10
2005,09,25,13,31,16.10
2005,09,25,13,32,16.10
2005,09,25,13,33,16.10
2005,09,25,13,34,16.20
2005,09,25,13,35,16.20
2005,09,25,13,36,16.30
2005,09,25,13,37,16.30
2005,09,25,13,38,16.20
2005,09,25,13,39,16.20
2005,09,25,13,40,16.10
2005,09,25,13,41,16.10
2005,09,25,13,42,16.10
2005,09,25,13,43,16.10
2005,09,25,13,44,16.20
2005,09,25,13,45,16.20
2005,09,25,13,46,16.20
2005,09,25,13,47,16.20
2005,09,25,13,48,16.20
2005,09,25,13,49,16.20
2005,09,25,13,50,16.20
2005,09,25,13,51,16.10
2005,09,25,13,52,16.10
2005,09,25,13,53,16.10
2005,09,25,13,54,16.10
2005,09,25,13,55,16.10
2005,09,25,13,56,16.10
2005,09,25,13,57,16.10
2005,09,25,13,58,16.10
2005,09,25,13,59,16.10
2005,09,25,14,00,16.10
2005,09,25,14,01,16.10
2005,09,25,14,02,16.10
2005,09,25,14,03,16.10
2005,09,25,14,04,16.10
2005,09,25,14,05,16.30
2005,09,25,14,06,16.40
2005,09,25,14,07,16.40
2005,09,25,14,08,16.40
2005,09,25,14,09,16.50
2005,09,25,14,10,16.80
2005,09,25,14,11,16.80
2005,09,25,14,12,16.70
2005,09,25,14,13,16.70
2005,09,25,14,14,16.70
2005,09,25,14,15,16.70
2005,09,25,14,16,16.60
2005,09,25,14,17,16.60
2005,09,25,14,18,16.60
2005,09,25,14,19,16.40
2005,09,25,14,20,16.40
2005,09,25,14,21,16.30
2005,09,25,14,22,16.20
2005,09,25,14,23,16.10
2005,09,25,14,24,16.00
2005,09,25,14,25,15.90
2005,09,25,14,26,15.90
2005,09,25,14,27,15.90
2005,09,25,14,28,15.80
2005,09,25,14,29,15.90
2005,09,25,14,30,16.00
2005,09,25,14,31,16.10
2005,09,25,14,32,16.10
2005,09,25,14,33,16.10
2005,09,25,14,34,16.10
2005,09,25,14,35,16.10
2005,09,25,14,36,16.10
2005,09,25,14,37,16.20
2005,09,25,14,38,16.20
2005,09,25,14,39,16.20
2005,09,25,14,40,16.30
2005,09,25,14,41,16.40
2005,09,25,14,42,16.40
2005,09,25,14,43,16.40
2005,09,25,14,44,16.40
2005,09,25,14,45,16.40
2005,09,25,14,46,16.60
2005,09,25,14,47,16.70
2005,09,25,14,48,16.60
2005,09,25,14,49,16.60
2005,09,25,14,50,16.60
2005,09,25,14,51,16.50
2005,09,25,14,52,16.40
2005,09,25,14,53,16.30
2005,09,25,14,54,16.30
2005,09,25,14,55,16.30
2005,09,25,14,56,16.40
2005,09,25,14,57,16.50
2005,09,25,14,58,16.70
2005,09,25,14,59,16.70
2005,09,25,15,00,16.70
2005,09,25,15,01,16.70
2005,09,25,15,02,16.70
2005,09,25,15,03,16.70
2005,09,25,15,04,16.70
2005,09,25,15,05,16.80
2005,09,25,15,06,16.90
2005,09,25,15,07,16.80
2005,09,25,15,08,16.70
2005,09,25,15,09,16.70
2005,09,25,15,10,16.70
2005,09,25,15,11,16.70
2005,09,25,15,12,16.70
2005,09,25,15,13,16.70
2005,09,25,15,14,16.80
2005,09,25,15,15,16.80
2005,09,25,15,16,17.00
2005,09,25,15,17,16.90
2005,09,25,15,18,16.90
2005,09,25,15,19,16.90
2005,09,25,15,20,16.90
2005,09,25,15,21,16.80
2005,09,25,15,22,16.70
2005,09,25,15,23,16.70
2005,09,25,15,24,16.70
2005,09,25,15,25,16.70
2005,09,25,15,26,16.80
2005,09,25,15,27,16.90
2005,09,25,15,28,16.90
2005,09,25,15,29,17.00
2005,09,25,15,30,17.10
2005,09,25,15,31,17.10
2005,09,25,15,32,17.10
2005,09,25,15,33,17.10
2005,09,25,15,34,17.10
2005,09,25,15,35,17.10
2005,09,25,15,36,17.10
2005,09,25,15,37,17.00
2005,09,25,15,38,16.90
2005,09,25,15,39,16.80
2005,09,25,15,40,16.80
2005,09,25,15,41,16.80
2005,09,25,15,42,16.90
2005,09,25,15,43,16.90
2005,09,25,15,44,16.90
2005,09,25,15,45,17.00
2005,09,25,15,46,17.10
2005,09,25,15,47,17.10
2005,09,25,15,48,17.10
2005,09,25,15,49,17.20
2005,09,25,15,50,17.30
2005,09,25,15,51,17.20
2005,09,25,15,52,17.20
2005,09,25,15,53,17.10
2005,09,25,15,54,17.00
2005,09,25,15,55,17.00
2005,09,25,15,56,17.00
2005,09,25,15,57,17.00
2005,09,25,15,58,17.00
2005,09,25,15,59,17.10
2005,09,25,16,00,17.00
2005,09,25,16,01,17.00
2005,09,25,16,02,16.90
2005,09,25,16,03,16.90
2005,09,25,16,04,16.90
2005,09,25,16,05,17.00
2005,09,25,16,06,17.00
2005,09,25,16,07,17.00
2005,09,25,16,08,17.00
2005,09,25,16,09,17.00
2005,09,25,16,10,17.00
2005,09,25,16,11,17.00
2005,09,25,16,12,16.90
2005,09,25,16,13,16.90
2005,09,25,16,14,16.90
2005,09,25,16,15,16.90
2005,09,25,16,16,16.90
2005,09,25,16,17,17.00
2005,09,25,16,18,17.10
2005,09,25,16,19,17.10
2005,09,25,16,20,17.00
2005,09,25,16,21,16.90
2005,09,25,16,22,16.90
2005,09,25,16,23,16.80
2005,09,25,16,24,16.80
2005,09,25,16,25,16.90
2005,09,25,16,26,16.80
2005,09,25,16,27,16.70
2005,09,25,16,28,16.70
2005,09,25,16,29,16.70
2005,09,25,16,30,16.70
2005,09,25,16,31,16.90
2005,09,25,16,32,16.90
2005,09,25,16,33,16.90
2005,09,25,16,34,16.90
2005,09,25,16,35,17.00
2005,09,25,16,36,17.00
2005,09,25,16,37,17.00
2005,09,25,16,38,17.00
2005,09,25,16,39,17.00
2005,09,25,16,40,17.10
2005,09,25,16,41,17.10
2005,09,25,16,42,17.20
2005,09,25,16,43,17.30
2005,09,25,16,44,17.30
2005,09,25,16,45,17.30
2005,09,25,16,46,17.30
2005,09,25,16,47,17.30
2005,09,25,16,48,17.30
2005,09,25,16,49,17.30
2005,09,25,16,50,17.40
2005,09,25,16,51,17.50
2005,09,25,16,52,17.60
2005,09,25,16,53,17.70
2005,09,25,16,54,17.80
2005,09,25,16,55,17.80
2005,09,25,16,56,17.80
2005,09,25,16,57,17.70
2005,09,25,16,58,17.60
2005,09,25,16,59,17.50
2005,09,25,17,00,17.50
2005,09,25,17,01,17.30
2005,09,25,17,02,17.30
2005,09,25,17,03,17.30
2005,09,25,17,04,17.20
2005,09,25,17,05,17.10
2005,09,25,17,06,17.00
2005,09,25,17,07,17.00
2005,09,25,17,08,17.00
2005,09,25,17,09,17.10
2005,09,25,17,10,17.10
2005,09,25,17,11,17.20
2005,09,25,17,12,17.20
2005,09,25,17,13,17.20
2005,09,25,17,14,17.20
2005,09,25,17,15,17.10
2005,09,25,17,16,17.10
2005,09,25,17,17,17.10
2005,09,25,17,18,17.10
2005,09,25,17,19,17.10
2005,09,25,17,20,17.10
2005,09,25,17,21,17.00
2005,09,25,17,22,17.00
2005,09,25,17,23,16.90
2005,09,25,17,24,16.90
2005,09,25,17,25,16.90
2005,09,25,17,26,16.80
2005,09,25,17,27,16.80
2005,09,25,17,28,16.80
2005,09,25,17,29,16.80
2005,09,25,17,30,16.80
2005,09,25,17,31,16.80
2005,09,25,17,32,16.80
2005,09,25,17,33,16.80
2005,09,25,17,34,16.80
2005,09,25,17,35,16.80
2005,09,25,17,36,16.70
2005,09,25,17,37,16.70
2005,09,25,17,38,16.70
2005,09,25,17,39,16.60
2005,09,25,17,40,16.50
2005,09,25,17,41,16.40